SCP
0 0 0 0 0 0 0 0 0 0 0 0 0 0 0 0 0 0 0 0 0 0 0 -0 -0 0 0 0 0 0 0 0 0 0 0 0 0 0 0 0 0 0 0 0 0 0 0 0 0 0 0 0 0 0
0 -0 0 0 0 0 0 0 0 0 0 0 0 0 0 0 0 0 0 0 0 0 0 0 0 0 0 0 0 0 0 0 0 0 0 0 0 0 0 0 0 0 1 1 0 0 0 0 0 0 0 0 0 0
0 -0 -0 -0 0 0 0 0 0 0 0 0 0 0 0 -0 0 0 0 0 0 0 0 0 0 0 0 0 0 0 0 0 0 0 0 0 0 0 0 0 0 0 0 1 0 0 0 0 0 0 0 0 0 0
0 0 -0 -0 0 0 0 -0 -0 -0 -0 0 0 0 0 0 0 -0 0 0 0 0 0 0 0 0 0 0 0 -0 0 0 0 0 -0 -0 0 0 0 0 0 -0 0 0 0 0 0 0 0 0 0 0 0 0
0 0 -0 0 -0 -0 -0 0 -0 -0 0 0 0 0 -0 0 0 0 0 0 0 0 0 0 0 0 0 0 0 0 0 0 0 0 0 -0 -0 0 0 0 0 0 -0 0 0 0 0 0 0 0 0 0 0 0
0 0 0 0 -0 -0 0 0 0 0 0 0 0 0 0 0 0 0 0 0 0 0 0 0 0 0 0 -0 -0 -0 0 0 0 0 0 -0 -0 0 0 -0 0 0 0 0 -0 0 0 0 0 0 0 0 0 0
0 -0 0 -0 -0 -0 -0 0 0 0 0 0 0 0 0 0 0 0 0 0 0 0 0 0 0 0 0 0 0 0 0 0 0 0 0 0 -0 0 -0 -0 0 0 0 0 0 0 0 0 0 0 0 0 0 0
0 0 -0 -0 -0 -0 0 -0 -0 -0 0 0 0 0 0 -0 0 0 0 0 0 0 0 0 -0 0 0 0 0 0 0 0 0 0 0 0 0 0 0 -0 0 -0 -0 0 0 0 0 0 0 0 0 0 0 -0
-0 -0 -0 -0 -0 -0 0 -0 -0 -0 0 0 0 0 0 0 -0 -0 -0 -0 -0 0 0 -0 0 0 0 0 0 0 0 -0 0 -0 0 0 -0 -0 -0 0 -0 -0 0 0 0 0 0 0 0 0 -0 -0 -0 -0
0 -0 -0 -0 -0 -0 0 -0 0 0 0 0 0 0 0 -0 -0 0 -0 -0 -0 -0 -0 -0 0 -0 0 -0 -0 -0 -0 -0 -0 -0 0 0 -0 -0 -0 0 -0 -0 0 0 0 -0 -0 0 -0 -0 -0 -0 -0 -0
-0 -0 -0 -0 -0 -0 0 -0 -0 -0 0 0 0 0 0 0 0 -0 -0 -0 0 -0 -0 0 0 -0 -0 -0 -0 -0 -0 -0 -0 -0 0 -0 -0 -0 -0 0 -0 -0 -0 -0 -0 -0 -0 -0 -0 -0 -0 -0 -0 -0
0 -0 -0 -0 -0 -0 0 0 0 -0 0 0 0 0 0 0 0 -0 -0 -0 -0 0 -0 -0 -0 -0 -0 -0 -0 -0 -0 -0 0 -0 -0 0 -0 -0 0 0 0 0 0 0 -0 -0 -0 -0 -0 -0 -0 -0 -0 0
-0 -0 -0 -0 -0 -0 0 0 -0 0 0 0 0 0 -0 -0 0 0 -0 -0 -0 -0 0 -0 0 -0 0 0 -0 0 0 -0 -0 -0 0 0 0 0 0 0 0 0 0 0 0 0 0 -0 -0 -0 -0 0 0 0
-0 0 -0 -0 0 0 0 -0 0 0 0 0 0 -0 0 -0 0 0 0 -0 -0 -0 0 0 0 0 0 0 -0 -0 -0 -0 -0 -0 -0 0 0 0 0 0 0 0 0 0 0 -0 -0 -0 0 0 0 0 0 0
-0 -0 -0 0 -0 0 -0 -0 0 0 0 0 0 0 0 0 0 0 0 -0 -0 -0 0 0 -0 -0 0 0 0 0 -0 -0 -0 -0 0 0 0 0 0 0 0 0 0 0 0 0 0 0 0 0 0 0 0 0
-0 0 0 -0 0 0 0 0 0 0 0 0 0 0 0 -0 0 -0 -0 -0 -0 -0 -0 -0 -0 -0 0 -0 0 0 0 -0 0 0 0 0 0 0 0 0 0 0 0 0 0 0 0 0 0 0 0 0 0 0
0 0 -0 -0 0 0 0 0 0 0 -0 -0 -0 -0 -0 -0 -0 -0 -0 -0 -0 -0 -0 -0 -0 -0 -0 -0 -0 0 0 0 0 0 0 0 0 0 0 0 0 0 0 0 0 0 0 0 0 0 0 0 0 0
0 -0 -0 0 0 0 0 0 0 0 -0 -0 -0 -0 -0 -0 0 0 -0 -0 -0 -0 -0 0 0 0 -0 -0 -0 0 0 0 0 0 0 0 0 0 0 0 0 0 0 0 0 0 0 0 0 0 0 0 0 0
-0 -0 -0 -0 0 0 0 0 0 0 0 -0 -0 -0 -0 -0 0 -0 -0 -0 -0 0 0 0 0 -0 -0 0 0 0 0 0 0 0 0 0 0 0 0 0 0 0 0 0 0 0 0 0 0 0 0 0 0 0
-0 0 -0 0 0 -0 -0 0 0 0 0 -0 -0 -0 -0 -0 -0 -0 -0 0 0 0 0 0 0 0 0 0 0 0 0 0 0 0 0 0 0 0 0 0 0 0 0 0 0 0 0 0 0 0 0 0 0 0
0 0 0 0 -0 -0 0 -0 -0 -0 0 0 0 -0 -0 -0 -0 0 0 0 0 0 0 0 0 0 -0 0 0 0 0 0 0 0 0 0 0 0 0 0 0 0 0 0 0 0 0 0 0 0 0 0 0 0
0 0 0 0 0 0 0 -0 -0 -0 -0 0 0 0 0 0 0 0 0 0 0 0 0 0 0 0 -0 -0 0 0 0 0 0 0 0 0 0 0 0 0 0 0 0 0 0 0 0 0 0 0 0 0 0 0
0 0 0 0 -0 -0 0 0 0 0 0 0 0 0 0 0 0 0 0 0 0 0 0 0 0 0 0 0 0 0 0 0 0 0 0 0 0 0 0 0 0 0 0 0 0 0 0 0 0 0 0 0 0 0
0 0 0 0 0 0 0 0 0 0 0 0 0 0 0 0 0 0 0 0 0 0 0 0 0 0 0 0 0 0 0 0 0 0 0 0 0 0 0 0 0 0 0 0 0 0 0 0 0 0 0 0 0 0
0 0 0 0 0 0 0 0 0 0 0 0 0 0 0 0 0 0 0 0 0 0 0 0 0 0 0 0 0 0 0 0 0 0 0 0 0 0 0 0 0 0 0 0 0 0 0 0 0 0 0 0 0 0
0 0 0 0 0 0 0 0 0 0 0 0 0 0 0 0 0 0 0 0 0 0 0 0 0 0 0 0 0 0 0 0 0 0 0 0 0 0 0 0 0 0 0 0 0 0 0 0 0 0 0 0 0 0
0 0 0 0 0 0 0 0 0 0 0 0 0 0 0 0 0 0 0 0 0 0 0 0 0 0 0 0 0 0 0 0 0 0 0 0 0 0 0 0 0 0 0 0 0 0 0 0 0 0 0 0 0 0
0 0 0 0 0 0 0 0 0 0 0 0 0 0 0 0 0 0 0 0 0 0 0 0 0 0 0 0 0 0 0 0 0 0 0 0 0 0 0 0 0 0 0 0 0 0 0 0 0 0 0 0 0 0
0 0 0 0 0 0 0 0 0 0 0 0 0 0 0 0 0 0 0 0 0 0 0 0 0 0 0 0 0 0 0 0 0 0 0 0 0 0 0 0 0 0 0 0 0 0 0 0 0 0 0 0 0 0
0 0 0 0 0 0 0 0 0 0 0 0 0 0 0 0 0 0 0 0 0 0 0 0 0 0 0 0 0 0 0 0 0 0 0 0 0 0 0 0 0 0 0 0 0 0 0 0 0 0 0 0 0 0
0 0 0 0 0 0 0 0 0 0 0 0 0 0 0 0 0 0 0 0 0 0 0 0 0 0 0 0 0 0 0 0 0 0 0 0 0 0 0 0 0 0 0 0 0 0 0 0 0 0 0 0 0 0
0 0 0 0 0 0 0 0 0 0 0 0 0 0 0 0 0 0 0 0 0 0 0 0 0 0 0 0 0 0 0 0 0 0 0 0 0 0 0 0 0 0 0 0 0 0 0 0 0 0 0 0 0 0
0 0 0 0 0 0 0 0 0 0 0 0 0 0 0 0 0 0 0 0 0 0 0 0 0 0 0 0 0 0 0 0 0 0 0 0 0 0 0 0 0 0 0 0 0 0 0 0 0 0 0 0 0 0
Wind_Speed_500mb
44 43 42 45 44 47 46 48 50 42 39 37 33 30 30 33 33 36 48 52 61 14 25 24 52 39 18 28 27 21 14 17 16 18 11 15 10 24 27 41 39 26 17 19 20 22 38 38 30 32 12 11 6 7
44 49 47 48 46 44 39 44 42 37 39 34 30 31 32 33 34 28 37 33 40 36 13 16 31 35 35 29 25 12 7 7 6 6 11 10 15 23 32 30 39 28 20 21 23 18 28 27 36 27 8 7 8 18
44 43 48 50 41 39 39 39 36 38 42 35 31 27 27 31 33 36 27 27 28 15 29 36 39 38 39 39 29 27 21 22 12 9 4 7 21 24 26 31 23 15 30 23 27 37 40 30 19 5 8 10 13 22
45 44 45 45 40 37 37 36 38 39 43 35 30 27 25 25 28 34 33 23 23 8 10 21 21 38 34 37 43 44 38 4 10 13 9 8 10 31 25 31 23 13 7 29 25 31 34 34 23 24 14 15 20 27
44 47 45 40 39 39 39 38 37 36 34 33 31 25 22 25 21 27 32 28 25 17 9 18 25 38 33 36 47 49 45 43 20 10 8 9 11 13 20 28 22 34 24 17 20 19 23 30 13 23 23 17 21 35
41 37 40 42 41 40 42 40 39 40 36 32 29 26 24 22 22 21 12 27 25 23 8 8 17 34 27 43 47 45 51 51 35 10 12 37 41 10 8 23 39 49 45 36 30 11 13 15 23 32 36 39 45 47
44 49 47 45 43 43 45 44 41 38 34 29 26 25 24 21 23 19 7 6 28 28 6 8 9 18 36 28 39 39 46 42 31 13 14 35 34 17 23 32 37 50 50 24 12 13 3 7 11 25 34 40 42 44
45 51 50 49 46 47 48 46 42 38 33 26 23 22 18 18 22 27 31 24 24 17 9 7 10 10 19 19 13 20 18 27 21 16 10 15 35 28 14 29 36 42 53 15 24 16 12 17 22 34 41 48 50 49
49 55 56 54 49 52 51 48 44 39 32 25 20 19 16 17 14 18 21 25 24 13 9 8 9 5 19 11 16 12 19 9 17 10 12 16 20 19 22 32 42 52 33 30 34 28 16 34 44 48 51 52 50 49
57 59 61 59 52 55 55 50 44 38 32 26 20 11 10 17 25 15 9 8 14 16 20 12 30 11 21 18 12 6 14 7 8 15 16 11 29 58 64 53 47 34 40 33 40 31 40 45 52 53 54 48 44 47
67 63 66 64 57 58 59 52 45 41 36 26 14 10 5 16 22 12 12 13 17 9 21 23 46 20 17 12 9 18 4 6 7 10 12 9 14 35 67 59 41 32 35 44 30 36 40 49 54 54 48 42 43 41
87 76 71 69 64 59 62 57 53 46 28 25 13 11 13 11 10 9 10 9 11 9 13 9 12 19 10 12 7 10 5 4 7 16 7 6 6 6 27 33 31 35 38 33 27 32 41 44 47 46 44 42 40 39
106 88 77 74 67 61 63 59 57 38 26 18 9 14 12 11 13 10 11 8 5 4 7 11 6 14 12 13 6 5 8 9 5 5 6 3 13 6 26 33 32 34 37 29 30 36 41 45 43 42 42 40 48 46
100 97 84 74 69 63 60 58 55 42 18 12 9 10 9 9 11 12 13 9 5 11 13 17 4 4 7 10 6 8 2 4 5 5 7 9 7 11 23 30 39 41 36 39 39 43 46 46 45 47 48 45 41 38
89 98 84 76 65 59 59 56 53 37 13 9 9 8 15 19 16 16 14 15 17 14 16 5 7 8 4 3 5 3 5 9 10 3 7 13 3 16 23 31 34 36 45 46 47 49 51 51 53 47 41 39 35 31
90 88 76 74 68 61 54 50 43 29 11 8 9 9 9 12 10 10 15 21 19 17 10 10 3 4 7 4 5 10 5 5 5 6 10 12 4 17 26 31 33 43 43 44 41 40 43 45 45 42 40 34 30 29
94 72 73 69 68 65 57 44 29 15 9 7 8 12 20 23 21 13 14 17 14 15 6 5 4 3 2 5 5 4 5 7 10 11 10 7 6 21 32 36 41 41 41 38 37 40 42 41 39 37 36 33 31 30
72 82 74 69 69 63 53 17 9 7 11 17 12 9 12 19 22 22 13 17 11 11 13 3 4 4 6 5 4 4 6 5 8 9 5 7 8 24 30 40 43 42 40 38 37 37 38 39 36 33 32 32 31 30
69 66 64 61 53 14 6 5 5 8 14 13 14 16 13 16 21 20 21 21 19 14 6 4 4 6 5 4 8 13 12 10 8 3 4 15 18 31 40 44 44 42 40 38 36 35 35 31 25 27 29 29 25 28
64 55 58 42 12 2 2 6 8 9 10 5 10 11 11 11 13 14 10 10 15 9 5 6 6 2 5 8 10 13 14 9 6 7 9 14 26 37 41 40 40 40 38 37 33 32 33 29 25 24 24 26 25 24
19 22 29 25 19 17 9 8 14 11 10 10 8 11 10 9 11 10 10 10 13 7 6 12 9 9 10 11 9 12 11 9 9 8 18 23 27 30 38 37 38 33 32 30 29 29 27 22 25 25 24 26 24 21
12 12 14 20 13 9 11 14 11 8 8 8 7 8 9 6 9 10 8 13 10 15 13 13 15 13 8 6 8 5 10 13 18 17 24 31 30 30 32 36 32 29 26 26 24 26 24 23 25 24 23 23 23 19
3 4 9 12 11 13 7 9 9 7 6 4 5 6 6 6 5 6 8 11 15 25 27 26 25 20 15 11 6 7 10 11 12 18 28 24 25 26 30 30 25 27 25 23 23 23 24 23 21 20 21 22 20 20
7 6 7 6 8 4 3 5 6 6 5 5 5 6 5 5 4 8 8 10 14 20 26 28 26 23 19 18 11 9 9 16 17 23 22 25 24 24 24 24 23 23 20 26 25 24 21 19 18 19 21 21 23 23
7 4 3 5 3 4 6 4 5 5 7 6 5 7 3 4 5 7 6 6 15 18 20 25 27 25 21 20 17 16 13 19 21 24 24 19 22 25 23 23 23 24 24 25 23 20 18 18 16 17 19 21 23 25
5 5 6 6 4 5 4 5 4 4 4 5 6 3 4 5 6 10 1 10 8 11 22 30 30 25 23 24 21 19 20 19 18 18 22 23 22 24 27 27 26 24 24 22 20 20 19 18 17 17 18 20 24 24
2 5 5 4 8 11 9 9 10 7 7 6 3 3 4 7 10 1 7 10 9 10 13 25 26 25 24 24 26 27 24 22 21 18 22 23 23 19 20 22 21 19 20 21 20 19 18 17 19 19 19 20 23 24
3 6 7 17 10 6 7 6 5 5 5 5 6 7 6 6 4 7 7 21 23 16 16 21 26 23 26 29 30 28 29 27 25 21 23 23 23 23 23 23 21 20 18 17 18 19 20 19 19 19 19 21 23 22
3 7 11 4 7 9 7 6 6 4 5 6 6 6 6 7 11 16 22 27 23 11 15 22 29 31 28 24 24 29 29 29 29 29 26 21 27 29 26 23 22 21 18 16 17 18 19 20 20 18 17 18 22 21
4 8 8 5 6 7 5 9 15 19 20 22 23 32 40 37 36 41 39 28 19 15 15 23 31 32 31 31 31 31 30 32 28 24 24 21 21 26 28 26 25 23 20 18 18 17 16 16 16 17 19 22 22 20
10 8 9 12 10 19 20 22 29 33 37 36 32 41 48 40 38 43 36 31 26 19 20 21 27 31 31 32 33 33 32 34 33 31 31 30 25 22 25 25 24 22 21 20 17 16 16 16 15 15 16 18 20 21
9 10 13 15 25 34 37 23 21 19 24 25 31 31 30 19 20 15 21 19 18 16 19 20 21 26 32 33 30 32 27 28 29 29 27 25 24 24 24 24 23 22 21 19 17 18 18 17 17 18 19 19 20 21
13 22 24 19 10 9 6 14 22 28 30 34 37 34 31 29 15 9 10 11 20 19 16 13 16 19 22 26 29 28 25 21 21 24 24 24 23 22 22 22 22 21 20 20 20 20 21 19 19 19 20 22 22 21
Wind_Direction_500mb
254 254 257 251 248 248 240 242 236 236 231 223 220 218 217 218 222 224 239 233 217 242 257 242 231 267 239 228 231 244 217 213 185 215 210 253 251 226 253 251 228 198 214 220 234 242 245 250 268 201 279 306 277 203
250 259 250 254 246 238 244 228 222 227 218 210 213 216 214 217 225 231 238 240 225 233 248 242 240 240 254 245 248 216 240 123 181 265 229 263 242 272 267 255 248 229 206 229 217 237 244 260 280 217 281 285 226 160
261 248 254 243 231 239 229 218 217 217 207 198 212 207 211 217 222 227 238 228 209 258 277 255 244 244 239 237 237 253 257 240 218 235 252 295 255 235 236 239 270 283 286 216 241 258 271 257 256 261 235 217 203 166
255 252 250 228 219 223 213 212 212 210 211 195 200 198 207 217 221 223 222 235 217 238 267 271 252 240 238 234 232 234 247 265 191 188 200 223 260 297 276 275 222 210 266 238 235 249 270 270 250 236 217 159 155 153
258 247 226 214 214 212 208 203 198 192 190 195 200 201 200 212 217 212 221 229 223 231 309 295 279 256 240 233 234 236 241 239 205 208 208 240 274 252 267 272 263 248 239 216 252 265 248 263 287 223 189 156 159 159
239 220 213 210 206 204 198 194 193 194 196 199 201 207 208 213 205 199 225 241 228 231 273 279 283 259 248 231 234 236 231 239 234 214 238 248 246 210 251 260 251 246 254 251 253 263 234 276 286 244 223 182 173 164
232 212 205 205 203 198 193 188 188 188 188 192 203 205 207 218 203 226 233 191 193 202 241 270 256 239 229 224 225 230 229 227 224 239 232 259 259 264 253 257 267 273 274 271 175 149 28 222 218 187 171 159 161 155
218 206 201 202 200 194 190 188 188 184 182 186 193 199 207 215 217 240 250 257 194 184 239 245 256 209 186 199 202 211 214 218 220 220 225 235 249 228 255 251 262 269 256 207 181 191 157 202 183 171 165 158 154 150
212 203 201 199 196 191 187 187 183 182 183 186 188 198 197 209 220 240 233 256 277 258 276 251 249 192 172 180 194 209 207 219 211 213 216 229 227 226 238 255 264 266 219 212 177 167 206 197 182 172 165 163 156 153
208 200 197 195 193 188 185 183 181 181 181 177 174 179 217 221 200 200 207 208 213 211 220 250 265 240 178 172 190 226 197 228 222 217 200 232 241 244 245 258 266 264 197 191 165 161 180 181 177 174 171 165 162 159
202 195 192 191 187 185 182 180 175 169 170 175 184 223 197 171 170 208 218 204 201 219 206 235 231 236 213 224 217 203 235 214 240 181 208 231 240 233 235 237 237 228 197 191 202 190 184 179 175 171 166 163 160 157
195 192 186 187 185 181 181 180 174 171 178 185 188 185 151 191 197 220 209 202 226 240 186 227 232 229 193 194 200 192 247 228 267 151 238 246 252 217 192 193 186 166 170 181 179 180 175 174 171 167 162 158 155 156
186 188 180 184 182 179 179 179 178 175 187 182 219 196 187 181 228 251 200 213 248 238 237 216 215 182 163 191 217 241 227 231 251 233 247 357 16 151 153 159 162 164 160 161 156 159 161 159 160 159 155 155 165 174
181 181 181 180 179 178 178 180 178 181 178 212 219 195 223 193 239 226 257 325 240 264 274 214 134 243 187 188 202 241 220 265 246 257 237 48 23 154 146 149 154 154 152 147 147 148 148 148 150 159 172 176 174 173
171 172 175 177 171 170 176 176 182 180 216 240 231 237 218 245 279 299 312 293 271 277 277 191 156 230 171 236 228 269 226 237 222 294 60 10 347 160 152 153 152 149 151 150 149 148 155 163 165 167 170 170 174 177
158 156 166 171 171 167 164 167 172 198 246 242 242 263 283 282 268 252 269 281 270 265 240 266 250 224 216 239 222 228 255 261 59 32 358 336 207 164 157 152 157 154 155 152 154 158 161 162 163 162 165 171 176 183
144 147 155 157 161 167 169 166 177 226 243 253 251 250 261 273 264 277 303 274 294 254 236 211 231 281 44 231 249 249 305 12 352 328 322 294 222 163 167 169 157 150 149 150 152 155 159 163 166 169 173 176 183 188
141 146 148 150 149 156 168 200 204 243 247 245 254 264 247 267 285 290 275 269 249 236 238 276 325 250 249 262 299 42 334 314 300 310 278 213 167 182 176 160 152 151 151 153 157 160 165 167 169 174 183 187 191 196
132 143 147 152 159 131 130 204 249 279 255 276 273 268 257 262 270 274 272 269 239 276 273 259 261 253 295 6 311 302 300 302 297 226 252 181 166 172 166 159 157 157 159 160 161 162 166 165 172 183 189 191 196 202
114 129 147 158 181 216 17 271 224 267 276 280 245 255 259 268 282 291 283 243 214 219 204 221 246 344 297 304 288 284 289 270 216 164 146 160 160 162 162 157 160 162 162 163 167 173 174 175 183 187 196 192 200 205
133 175 181 200 216 220 237 227 224 240 273 260 269 250 267 267 257 249 241 215 228 221 228 225 232 229 248 276 289 280 267 215 204 192 170 152 147 152 155 166 161 161 164 168 172 178 175 184 196 203 206 203 206 209
233 232 209 202 213 226 248 232 256 275 251 290 262 239 269 254 233 230 214 219 238 232 216 223 229 220 239 281 305 259 216 185 188 166 158 160 151 156 160 161 162 163 168 174 177 185 179 192 204 208 209 212 210 208
290 256 231 212 213 213 223 208 233 233 254 239 242 242 233 234 241 204 247 233 241 232 230 228 225 210 210 198 155 137 167 154 169 164 154 154 153 157 161 163 172 175 170 172 181 187 193 204 208 215 214 219 205 206
209 261 235 229 226 269 261 239 241 255 275 258 242 259 241 250 230 243 250 233 221 214 209 217 201 190 190 193 189 198 170 158 159 157 161 159 158 162 166 170 171 172 180 185 185 190 199 209 218 222 222 212 209 210
226 250 275 223 266 263 234 229 227 241 253 220 252 243 214 237 246 247 245 251 214 211 208 200 194 196 199 194 183 195 182 171 167 169 165 165 166 161 163 170 172 186 192 188 194 204 209 214 216 214 210 206 205 204
237 2 354 332 318 297 318 274 237 279 287 260 245 305 288 259 253 252 303 3 330 255 223 204 196 194 201 201 189 183 191 173 165 174 180 178 178 181 177 175 179 194 196 204 204 207 212 217 218 217 217 213 208 203
65 8 338 327 303 290 278 263 274 266 257 247 252 249 236 244 243 90 359 338 320 274 242 221 203 208 207 195 192 193 190 172 166 181 183 171 172 177 193 185 182 200 200 204 208 211 217 222 223 226 220 219 218 215
56 6 338 320 295 266 273 275 252 250 279 327 277 235 240 250 337 350 322 321 320 313 201 201 198 199 205 211 210 203 197 192 192 192 186 186 187 187 186 187 188 193 195 197 206 215 222 230 228 230 226 219 220 229
261 309 318 275 276 247 244 255 277 302 296 291 279 276 287 297 285 305 307 312 317 298 220 218 209 208 213 215 210 211 213 210 199 191 189 190 197 200 197 197 198 199 203 208 209 213 216 221 223 225 222 218 223 226
295 320 291 262 245 251 230 233 268 283 274 268 269 277 283 282 286 290 302 296 282 276 247 223 222 218 222 219 212 209 209 203 196 193 200 205 209 210 201 203 202 206 211 210 213 215 220 222 222 220 220 219 219 201
288 279 262 256 265 286 286 286 288 287 277 270 264 262 270 283 288 290 284 264 252 252 256 238 224 215 213 207 204 202 204 207 208 207 206 211 219 209 202 201 205 205 208 214 215 215 209 202 203 205 202 197 199 195
266 261 291 283 291 302 304 293 292 276 284 280 276 274 268 255 265 257 273 268 240 247 250 249 228 220 216 216 213 210 216 219 215 214 214 214 209 209 211 210 207 207 209 213 208 206 194 182 177 175 179 185 186 194
275 275 273 286 284 284 313 318 292 289 277 275 275 277 270 258 261 256 276 265 226 219 205 213 231 226 216 202 201 202 206 218 222 217 216 216 214 209 204 202 202 204 202 199 196 194 188 186 180 185 191 195 202 204
Wind_Speed_850mb
44 43 42 45 44 47 46 48 50 42 39 37 33 30 30 33 33 36 48 52 61 14 25 24 52 39 18 28 27 21 14 17 16 18 11 15 10 24 27 41 39 26 17 19 20 22 38 38 30 32 12 11 6 7
44 49 47 48 46 44 39 44 42 37 39 34 30 31 32 33 34 28 37 33 40 36 13 16 31 35 35 29 25 12 7 7 6 6 11 10 15 23 32 30 39 28 20 21 23 18 28 27 36 27 8 7 8 18
44 43 48 50 41 39 39 39 36 38 42 35 31 27 27 31 33 36 27 27 28 15 29 36 39 38 39 39 29 27 21 22 12 9 4 7 21 24 26 31 23 15 30 23 27 37 40 30 19 5 8 10 13 22
45 44 45 45 40 37 37 36 38 39 43 35 30 27 25 25 28 34 33 23 23 8 10 21 21 38 34 37 43 44 38 4 10 13 9 8 10 31 25 31 23 13 7 29 25 31 34 34 23 24 14 15 20 27
44 47 45 40 39 39 39 38 37 36 34 33 31 25 22 25 21 27 32 28 25 17 9 18 25 38 33 36 47 49 45 43 20 10 8 9 11 13 20 28 22 34 24 17 20 19 23 30 13 23 23 17 21 35
41 37 40 42 41 40 42 40 39 40 36 32 29 26 24 22 22 21 12 27 25 23 8 8 17 34 27 43 47 45 51 51 35 10 12 37 41 10 8 23 39 49 45 36 30 11 13 15 23 32 36 39 45 47
44 49 47 45 43 43 45 44 41 38 34 29 26 25 24 21 23 19 7 6 28 28 6 8 9 18 36 28 39 39 46 42 31 13 14 35 34 17 23 32 37 50 50 24 12 13 3 7 11 25 34 40 42 44
45 51 50 49 46 47 48 46 42 38 33 26 23 22 18 18 22 27 31 24 24 17 9 7 10 10 19 19 13 20 18 27 21 16 10 15 35 28 14 29 36 42 53 15 24 16 12 17 22 34 41 48 50 49
49 55 56 54 49 52 51 48 44 39 32 25 20 19 16 17 14 18 21 25 24 13 9 8 9 5 19 11 16 12 19 9 17 10 12 16 20 19 22 32 42 52 33 30 34 28 16 34 44 48 51 52 50 49
57 59 61 59 52 55 55 50 44 38 32 26 20 11 10 17 25 15 9 8 14 16 20 12 30 11 21 18 12 6 14 7 8 15 16 11 29 58 64 53 47 34 40 33 40 31 40 45 52 53 54 48 44 47
67 63 66 64 57 58 59 52 45 41 36 26 14 10 5 16 22 12 12 13 17 9 21 23 46 20 17 12 9 18 4 6 7 10 12 9 14 35 67 59 41 32 35 44 30 36 40 49 54 54 48 42 43 41
87 76 71 69 64 59 62 57 53 46 28 25 13 11 13 11 10 9 10 9 11 9 13 9 12 19 10 12 7 10 5 4 7 16 7 6 6 6 27 33 31 35 38 33 27 32 41 44 47 46 44 42 40 39
106 88 77 74 67 61 63 59 57 38 26 18 9 14 12 11 13 10 11 8 5 4 7 11 6 14 12 13 6 5 8 9 5 5 6 3 13 6 26 33 32 34 37 29 30 36 41 45 43 42 42 40 48 46
100 97 84 74 69 63 60 58 55 42 18 12 9 10 9 9 11 12 13 9 5 11 13 17 4 4 7 10 6 8 2 4 5 5 7 9 7 11 23 30 39 41 36 39 39 43 46 46 45 47 48 45 41 38
89 98 84 76 65 59 59 56 53 37 13 9 9 8 15 19 16 16 14 15 17 14 16 5 7 8 4 3 5 3 5 9 10 3 7 13 3 16 23 31 34 36 45 46 47 49 51 51 53 47 41 39 35 31
90 88 76 74 68 61 54 50 43 29 11 8 9 9 9 12 10 10 15 21 19 17 10 10 3 4 7 4 5 10 5 5 5 6 10 12 4 17 26 31 33 43 43 44 41 40 43 45 45 42 40 34 30 29
94 72 73 69 68 65 57 44 29 15 9 7 8 12 20 23 21 13 14 17 14 15 6 5 4 3 2 5 5 4 5 7 10 11 10 7 6 21 32 36 41 41 41 38 37 40 42 41 39 37 36 33 31 30
72 82 74 69 69 63 53 17 9 7 11 17 12 9 12 19 22 22 13 17 11 11 13 3 4 4 6 5 4 4 6 5 8 9 5 7 8 24 30 40 43 42 40 38 37 37 38 39 36 33 32 32 31 30
69 66 64 61 53 14 6 5 5 8 14 13 14 16 13 16 21 20 21 21 19 14 6 4 4 6 5 4 8 13 12 10 8 3 4 15 18 31 40 44 44 42 40 38 36 35 35 31 25 27 29 29 25 28
64 55 58 42 12 2 2 6 8 9 10 5 10 11 11 11 13 14 10 10 15 9 5 6 6 2 5 8 10 13 14 9 6 7 9 14 26 37 41 40 40 40 38 37 33 32 33 29 25 24 24 26 25 24
19 22 29 25 19 17 9 8 14 11 10 10 8 11 10 9 11 10 10 10 13 7 6 12 9 9 10 11 9 12 11 9 9 8 18 23 27 30 38 37 38 33 32 30 29 29 27 22 25 25 24 26 24 21
12 12 14 20 13 9 11 14 11 8 8 8 7 8 9 6 9 10 8 13 10 15 13 13 15 13 8 6 8 5 10 13 18 17 24 31 30 30 32 36 32 29 26 26 24 26 24 23 25 24 23 23 23 19
3 4 9 12 11 13 7 9 9 7 6 4 5 6 6 6 5 6 8 11 15 25 27 26 25 20 15 11 6 7 10 11 12 18 28 24 25 26 30 30 25 27 25 23 23 23 24 23 21 20 21 22 20 20
7 6 7 6 8 4 3 5 6 6 5 5 5 6 5 5 4 8 8 10 14 20 26 28 26 23 19 18 11 9 9 16 17 23 22 25 24 24 24 24 23 23 20 26 25 24 21 19 18 19 21 21 23 23
7 4 3 5 3 4 6 4 5 5 7 6 5 7 3 4 5 7 6 6 15 18 20 25 27 25 21 20 17 16 13 19 21 24 24 19 22 25 23 23 23 24 24 25 23 20 18 18 16 17 19 21 23 25
5 5 6 6 4 5 4 5 4 4 4 5 6 3 4 5 6 10 1 10 8 11 22 30 30 25 23 24 21 19 20 19 18 18 22 23 22 24 27 27 26 24 24 22 20 20 19 18 17 17 18 20 24 24
2 5 5 4 8 11 9 9 10 7 7 6 3 3 4 7 10 1 7 10 9 10 13 25 26 25 24 24 26 27 24 22 21 18 22 23 23 19 20 22 21 19 20 21 20 19 18 17 19 19 19 20 23 24
3 6 7 17 10 6 7 6 5 5 5 5 6 7 6 6 4 7 7 21 23 16 16 21 26 23 26 29 30 28 29 27 25 21 23 23 23 23 23 23 21 20 18 17 18 19 20 19 19 19 19 21 23 22
3 7 11 4 7 9 7 6 6 4 5 6 6 6 6 7 11 16 22 27 23 11 15 22 29 31 28 24 24 29 29 29 29 29 26 21 27 29 26 23 22 21 18 16 17 18 19 20 20 18 17 18 22 21
4 8 8 5 6 7 5 9 15 19 20 22 23 32 40 37 36 41 39 28 19 15 15 23 31 32 31 31 31 31 30 32 28 24 24 21 21 26 28 26 25 23 20 18 18 17 16 16 16 17 19 22 22 20
10 8 9 12 10 19 20 22 29 33 37 36 32 41 48 40 38 43 36 31 26 19 20 21 27 31 31 32 33 33 32 34 33 31 31 30 25 22 25 25 24 22 21 20 17 16 16 16 15 15 16 18 20 21
9 10 13 15 25 34 37 23 21 19 24 25 31 31 30 19 20 15 21 19 18 16 19 20 21 26 32 33 30 32 27 28 29 29 27 25 24 24 24 24 23 22 21 19 17 18 18 17 17 18 19 19 20 21
13 22 24 19 10 9 6 14 22 28 30 34 37 34 31 29 15 9 10 11 20 19 16 13 16 19 22 26 29 28 25 21 21 24 24 24 23 22 22 22 22 21 20 20 20 20 21 19 19 19 20 22 22 21
Wind_Direction_850mb
254 254 257 251 248 248 240 242 236 236 231 223 220 218 217 218 222 224 239 233 217 242 257 242 231 267 239 228 231 244 217 213 185 215 210 253 251 226 253 251 228 198 214 220 234 242 245 250 268 201 279 306 277 203
250 259 250 254 246 238 244 228 222 227 218 210 213 216 214 217 225 231 238 240 225 233 248 242 240 240 254 245 248 216 240 123 181 265 229 263 242 272 267 255 248 229 206 229 217 237 244 260 280 217 281 285 226 160
261 248 254 243 231 239 229 218 217 217 207 198 212 207 211 217 222 227 238 228 209 258 277 255 244 244 239 237 237 253 257 240 218 235 252 295 255 235 236 239 270 283 286 216 241 258 271 257 256 261 235 217 203 166
255 252 250 228 219 223 213 212 212 210 211 195 200 198 207 217 221 223 222 235 217 238 267 271 252 240 238 234 232 234 247 265 191 188 200 223 260 297 276 275 222 210 266 238 235 249 270 270 250 236 217 159 155 153
258 247 226 214 214 212 208 203 198 192 190 195 200 201 200 212 217 212 221 229 223 231 309 295 279 256 240 233 234 236 241 239 205 208 208 240 274 252 267 272 263 248 239 216 252 265 248 263 287 223 189 156 159 159
239 220 213 210 206 204 198 194 193 194 196 199 201 207 208 213 205 199 225 241 228 231 273 279 283 259 248 231 234 236 231 239 234 214 238 248 246 210 251 260 251 246 254 251 253 263 234 276 286 244 223 182 173 164
232 212 205 205 203 198 193 188 188 188 188 192 203 205 207 218 203 226 233 191 193 202 241 270 256 239 229 224 225 230 229 227 224 239 232 259 259 264 253 257 267 273 274 271 175 149 28 222 218 187 171 159 161 155
218 206 201 202 200 194 190 188 188 184 182 186 193 199 207 215 217 240 250 257 194 184 239 245 256 209 186 199 202 211 214 218 220 220 225 235 249 228 255 251 262 269 256 207 181 191 157 202 183 171 165 158 154 150
212 203 201 199 196 191 187 187 183 182 183 186 188 198 197 209 220 240 233 256 277 258 276 251 249 192 172 180 194 209 207 219 211 213 216 229 227 226 238 255 264 266 219 212 177 167 206 197 182 172 165 163 156 153
208 200 197 195 193 188 185 183 181 181 181 177 174 179 217 221 200 200 207 208 213 211 220 250 265 240 178 172 190 226 197 228 222 217 200 232 241 244 245 258 266 264 197 191 165 161 180 181 177 174 171 165 162 159
202 195 192 191 187 185 182 180 175 169 170 175 184 223 197 171 170 208 218 204 201 219 206 235 231 236 213 224 217 203 235 214 240 181 208 231 240 233 235 237 237 228 197 191 202 190 184 179 175 171 166 163 160 157
195 192 186 187 185 181 181 180 174 171 178 185 188 185 151 191 197 220 209 202 226 240 186 227 232 229 193 194 200 192 247 228 267 151 238 246 252 217 192 193 186 166 170 181 179 180 175 174 171 167 162 158 155 156
186 188 180 184 182 179 179 179 178 175 187 182 219 196 187 181 228 251 200 213 248 238 237 216 215 182 163 191 217 241 227 231 251 233 247 357 16 151 153 159 162 164 160 161 156 159 161 159 160 159 155 155 165 174
181 181 181 180 179 178 178 180 178 181 178 212 219 195 223 193 239 226 257 325 240 264 274 214 134 243 187 188 202 241 220 265 246 257 237 48 23 154 146 149 154 154 152 147 147 148 148 148 150 159 172 176 174 173
171 172 175 177 171 170 176 176 182 180 216 240 231 237 218 245 279 299 312 293 271 277 277 191 156 230 171 236 228 269 226 237 222 294 60 10 347 160 152 153 152 149 151 150 149 148 155 163 165 167 170 170 174 177
158 156 166 171 171 167 164 167 172 198 246 242 242 263 283 282 268 252 269 281 270 265 240 266 250 224 216 239 222 228 255 261 59 32 358 336 207 164 157 152 157 154 155 152 154 158 161 162 163 162 165 171 176 183
144 147 155 157 161 167 169 166 177 226 243 253 251 250 261 273 264 277 303 274 294 254 236 211 231 281 44 231 249 249 305 12 352 328 322 294 222 163 167 169 157 150 149 150 152 155 159 163 166 169 173 176 183 188
141 146 148 150 149 156 168 200 204 243 247 245 254 264 247 267 285 290 275 269 249 236 238 276 325 250 249 262 299 42 334 314 300 310 278 213 167 182 176 160 152 151 151 153 157 160 165 167 169 174 183 187 191 196
132 143 147 152 159 131 130 204 249 279 255 276 273 268 257 262 270 274 272 269 239 276 273 259 261 253 295 6 311 302 300 302 297 226 252 181 166 172 166 159 157 157 159 160 161 162 166 165 172 183 189 191 196 202
114 129 147 158 181 216 17 271 224 267 276 280 245 255 259 268 282 291 283 243 214 219 204 221 246 344 297 304 288 284 289 270 216 164 146 160 160 162 162 157 160 162 162 163 167 173 174 175 183 187 196 192 200 205
133 175 181 200 216 220 237 227 224 240 273 260 269 250 267 267 257 249 241 215 228 221 228 225 232 229 248 276 289 280 267 215 204 192 170 152 147 152 155 166 161 161 164 168 172 178 175 184 196 203 206 203 206 209
233 232 209 202 213 226 248 232 256 275 251 290 262 239 269 254 233 230 214 219 238 232 216 223 229 220 239 281 305 259 216 185 188 166 158 160 151 156 160 161 162 163 168 174 177 185 179 192 204 208 209 212 210 208
290 256 231 212 213 213 223 208 233 233 254 239 242 242 233 234 241 204 247 233 241 232 230 228 225 210 210 198 155 137 167 154 169 164 154 154 153 157 161 163 172 175 170 172 181 187 193 204 208 215 214 219 205 206
209 261 235 229 226 269 261 239 241 255 275 258 242 259 241 250 230 243 250 233 221 214 209 217 201 190 190 193 189 198 170 158 159 157 161 159 158 162 166 170 171 172 180 185 185 190 199 209 218 222 222 212 209 210
226 250 275 223 266 263 234 229 227 241 253 220 252 243 214 237 246 247 245 251 214 211 208 200 194 196 199 194 183 195 182 171 167 169 165 165 166 161 163 170 172 186 192 188 194 204 209 214 216 214 210 206 205 204
237 2 354 332 318 297 318 274 237 279 287 260 245 305 288 259 253 252 303 3 330 255 223 204 196 194 201 201 189 183 191 173 165 174 180 178 178 181 177 175 179 194 196 204 204 207 212 217 218 217 217 213 208 203
65 8 338 327 303 290 278 263 274 266 257 247 252 249 236 244 243 90 359 338 320 274 242 221 203 208 207 195 192 193 190 172 166 181 183 171 172 177 193 185 182 200 200 204 208 211 217 222 223 226 220 219 218 215
56 6 338 320 295 266 273 275 252 250 279 327 277 235 240 250 337 350 322 321 320 313 201 201 198 199 205 211 210 203 197 192 192 192 186 186 187 187 186 187 188 193 195 197 206 215 222 230 228 230 226 219 220 229
261 309 318 275 276 247 244 255 277 302 296 291 279 276 287 297 285 305 307 312 317 298 220 218 209 208 213 215 210 211 213 210 199 191 189 190 197 200 197 197 198 199 203 208 209 213 216 221 223 225 222 218 223 226
295 320 291 262 245 251 230 233 268 283 274 268 269 277 283 282 286 290 302 296 282 276 247 223 222 218 222 219 212 209 209 203 196 193 200 205 209 210 201 203 202 206 211 210 213 215 220 222 222 220 220 219 219 201
288 279 262 256 265 286 286 286 288 287 277 270 264 262 270 283 288 290 284 264 252 252 256 238 224 215 213 207 204 202 204 207 208 207 206 211 219 209 202 201 205 205 208 214 215 215 209 202 203 205 202 197 199 195
266 261 291 283 291 302 304 293 292 276 284 280 276 274 268 255 265 257 273 268 240 247 250 249 228 220 216 216 213 210 216 219 215 214 214 214 209 209 211 210 207 207 209 213 208 206 194 182 177 175 179 185 186 194
275 275 273 286 284 284 313 318 292 289 277 275 275 277 270 258 261 256 276 265 226 219 205 213 231 226 216 202 201 202 206 218 222 217 216 216 214 209 204 202 202 204 202 199 196 194 188 186 180 185 191 195 202 204